[[{"header":{"parameterUnit":"m.s-1","parameterCategory":1,"la1":30.2991,"la2":30.254,"lo1":-89.0895,"lo2":-89.0444,"dy":0.0017,"dx":0.0017,"nx":28,"ny":28,"refTime":"2025-01-23T03:00:00:Z","depth":0,"parameterNumber":2,"parameterNumberName":"U-component_of_WINDS"},"data":[0,0,0,0,0,0,0,0,0,0,0,0,0,0,0,0,0,0,0,0,0,0,0,0,0,0,0,0,0,0,0,0,0,0,0,0,0,0,0,0,0,0,0,0,0,0,0,0,0,0,0,0,0,0,0,0,0,0,0.1852,0.1852,0,0.1851,0.1851,0.1851,0.1857,0.1857,0.1857,0.1857,0.1854,0.1854,0.1854,0,0,0,0,0,0,0,0,0,0,0,0,0,0.1859,0.1859,0.1852,0.1852,0.1852,0.1851,0.1851,0.1851,0.1856,0.1857,0.1857,0.1857,0.1854,0.1854,0.1854,0,0,0,0,0,0,0,0,0,0,0,0,0,0.1857,0.1859,0.1852,0.1855,0.1855,0.1851,0.1851,0.1851,0.1856,0.1857,0.1857,0.1857,0.1854,0.1854,0.1854,0.1847,0,0,0.1853,0.1853,0,0,0,0,0,0,0,0,0.1857,0.1856,0.1855,0.1855,0.1855,0.1854,0.1852,0.185,0.1856,0.1856,0.1857,0.1857,0.1854,0.1854,0.1853,0.1847,0.1846,0.1853,0.1852,0.1852,0.1852,0,0,0,0,0,0,0,0.1857,0.1856,0.1852,0.1855,0.1855,0.1856,0.1856,0.1852,0.1853,0.1856,0.1856,0.1856,0.1854,0.1853,0.1853,0.1846,0.1853,0.1852,0.1852,0.1852,0.1835,0.1834,0,0,0,0,0,0,0.1857,0.1856,0.1852,0.1852,0.1857,0.1856,0.1856,0.1854,0.1854,0.1854,0.1856,0.1856,0.1854,0.1853,0.1853,0.1845,0.1852,0.1852,0.1852,0.1835,0.1835,0.1834,0,0,0,0,0,0,0.1857,0.1856,0.1852,0.1854,0.1854,0.1855,0.1854,0.1854,0.1853,0.1854,0.1854,0.1855,0.1854,0.1853,0.1848,0.1845,0.1852,0.1852,0.1835,0.1835,0.1835,0.1828,0,0,0,0,0,0,0.1857,0.1856,0.1854,0.1854,0.1854,0.1848,0.1853,0.1854,0.1853,0.1853,0.1853,0.1853,0.1854,0.1849,0.1848,0.1844,0.1851,0.1836,0.1835,0.1835,0.1829,0.1828,0.1827,0,0,0,0,0,0.1857,0.1852,0.1854,0.1853,0.1851,0.1848,0.1847,0.1849,0.1852,0.185,0.185,0.1853,0.1845,0.1848,0.1847,0.1843,0.1836,0.1835,0.1835,0.1829,0.1828,0.1827,0,0,0,0,0,0,0.185,0.1852,0.1854,0.1848,0.1848,0.1848,0.1845,0.1848,0.1846,0.1846,0.1849,0.1848,0.1843,0.1843,0.1846,0.1837,0.1841,0.184,0.1837,0.1836,0.1835,0.1835,0.1851,0,0,0,0,0,0.1848,0.1846,0.1847,0.1842,0.1842,0.1844,0.1842,0.1844,0.1843,0.1843,0.1843,0.1842,0.184,0.1838,0.1835,0.1829,0.1829,0.1826,0.1825,0.1824,0.1823,0.182,0.1819,0.1832,0.1832,0.1833,0,0,0.1843,0.1844,0.1842,0.1841,0.184,0.1838,0.1843,0.184,0.1838,0.1842,0.1838,0.1838,0.1837,0.1831,0.1829,0.1831,0.1819,0.1823,0.1823,0.1822,0.1819,0.1818,0.1817,0.1832,0.1832,0.1832,0,0,0.1834,0.1834,0.183,0.183,0.183,0.1831,0.183,0.1831,0.1831,0.1827,0.183,0.1828,0.1823,0.1822,0.1821,0.1812,0.1814,0.1811,0.1806,0.1803,0.1802,0.1801,0.1797,0.1796,0.1811,0.1811,0.1811,0,0.1828,0.1824,0.1827,0.1824,0.1823,0.1828,0.1824,0.1823,0.1822,0.1822,0.1824,0.1819,0.1819,0.1813,0.1811,0.181,0.1809,0.1811,0.1802,0.1801,0.18,0.1797,0.1795,0.181,0.181,0.181,0.181,0,0.1817,0.1814,0.1811,0.1811,0.181,0.1806,0.1808,0.1807,0.1809,0.181,0.1806,0.1806,0.1804,0.1802,0.1804,0.1797,0.1798,0.1801,0.1805,0.1798,0.1795,0.1794,0.181,0.181,0.181,0.181,0,0,0.1802,0.1804,0.1802,0.1802,0.1803,0.1801,0.1798,0.1796,0.1795,0.1794,0.1791,0.1788,0.1791,0.179,0.1792,0.1789,0.1782,0.1792,0.1792,0.179,0.1774,0.1772,0.177,0.1783,0.1783,0.1783,0.1774,0,0.1792,0.1787,0.179,0.1784,0.1782,0.1786,0.1784,0.1784,0.1785,0.1783,0.1784,0.1781,0.1785,0.1785,0.1782,0.1783,0.1778,0.1784,0.178,0.178,0.178,0.1769,0.1766,0.1757,0.1773,0.1773,0.1773,0,0.178,0.1779,0.1773,0.1775,0.1774,0.1771,0.1771,0.1769,0.1769,0.177,0.1769,0.1772,0.1769,0.1773,0.1769,0.1772,0.1771,0.1772,0.1771,0.1771,0.1776,0.1767,0.1755,0.1753,0.1771,0.1771,0.1771,0,0.1769,0.1767,0.1763,0.1763,0.1765,0.1763,0.1764,0.1764,0.1763,0.1762,0.1762,0.1761,0.176,0.1759,0.1761,0.1764,0.1756,0.1761,0.1756,0.1756,0.1754,0.1754,0.1741,0.1754,0.1754,0.1754,0.1754,0,0.1758,0.1754,0.1759,0.1756,0.1752,0.1756,0.1752,0.1753,0.1753,0.1751,0.1755,0.1753,0.1756,0.1754,0.1756,0.1752,0.1751,0.1752,0.1752,0.1751,0.1751,0.175,0.1751,0.1754,0.1754,0.1754,0.1754,0,0.1745,0.1748,0.1744,0.1747,0.1747,0.1744,0.1746,0.1743,0.1745,0.1742,0.1742,0.1745,0.1743,0.1745,0.1743,0.1744,0.1739,0.174,0.1739,0.1739,0.1734,0.1735,0.172,0.1718,0.1732,0.1732,0.1732,0,0.1737,0.1735,0.1737,0.1736,0.1736,0.1735,0.1734,0.1738,0.1737,0.1737,0.1735,0.1734,0.1733,0.1729,0.1731,0.1729,0.1731,0.1725,0.173,0.1729,0.173,0.173,0.173,0.1724,0.1724,0.1724,0.1724,0,0.1723,0.1725,0.1724,0.1724,0.1723,0.1723,0.1723,0.1722,0.1726,0.1725,0.1723,0.1723,0.1721,0.1719,0.1719,0.1719,0.1722,0.1722,0.1721,0.172,0.1719,0.1719,0.1736,0.1722,0.1723,0.1723,0.1723,0.1723,0.1713,0.1711,0.1712,0.1711,0.1712,0.1712,0.171,0.1712,0.1711,0.171,0.1712,0.171,0.1711,0.171,0.171,0.1709,0.1711,0.1709,0.1709,0.1708,0.1707,0.172,0.1708,0.1708,0.1709,0.1709,0.1709,0,0.1699,0.17,0.1699,0.17,0.1699,0.1703,0.1703,0.1702,0.17,0.1701,0.17,0.1698,0.1697,0.1699,0.1698,0.1696,0.1697,0.1696,0.1695,0.1695,0.1706,0.1707,0.1694,0.1694,0.1694,0.1694,0.1694,0.1694,0.1692,0.1688,0.169,0.1687,0.1689,0.1687,0.1687,0.1687,0.1688,0.1686,0.1685,0.1686,0.1687,0.1687,0.1686,0.1686,0.1685,0.1683,0.1684,0.1693,0.1695,0.1696,0.1697,0.1683,0.1683,0.1674,0.1674,0.1674]},{"header":{"parameterUnit":"m.s-1","parameterCategory":1,"la1":30.2991,"la2":30.254,"lo1":-89.0895,"lo2":-89.0444,"dy":0.0017,"dx":0.0017,"nx":28,"ny":28,"refTime":"2025-01-23T03:00:00:Z","depth":0,"parameterNumber":3,"parameterNumberName":"V-component_of_WINDS"},"data":[0,0,0,0,0,0,0,0,0,0,0,0,0,0,0,0,0,0,0,0,0,0,0,0,0,0,0,0,0,0,0,0,0,0,0,0,0,0,0,0,0,0,0,0,0,0,0,0,0,0,0,0,0,0,0,0,0,0,-3.027,-3.0271,0,-3.0307,-3.0308,-3.0308,-3.0285,-3.0284,-3.0283,-3.0282,-3.0318,-3.032,-3.0322,0,0,0,0,0,0,0,0,0,0,0,0,0,-3.0179,-3.018,-3.027,-3.0271,-3.0271,-3.0307,-3.0308,-3.0308,-3.0286,-3.0284,-3.0283,-3.0282,-3.0317,-3.0319,-3.0322,0,0,0,0,0,0,0,0,0,0,0,0,0,-3.0217,-3.0181,-3.027,-3.0264,-3.0264,-3.0307,-3.0308,-3.0308,-3.0286,-3.0284,-3.0283,-3.0281,-3.0316,-3.0319,-3.0322,-3.0372,0,0,-3.0331,-3.0332,0,0,0,0,0,0,0,0,-3.0215,-3.0221,-3.0265,-3.0265,-3.0265,-3.029,-3.0289,-3.033,-3.0286,-3.0277,-3.0282,-3.028,-3.031,-3.0313,-3.0324,-3.0374,-3.0376,-3.0331,-3.0333,-3.0334,-3.0335,0,0,0,0,0,0,0,-3.0212,-3.0219,-3.0285,-3.0265,-3.0265,-3.0259,-3.0263,-3.0296,-3.0302,-3.0278,-3.0277,-3.0281,-3.0309,-3.0321,-3.0324,-3.0376,-3.0331,-3.0334,-3.0336,-3.0337,-3.0472,-3.0474,0,0,0,0,0,0,-3.021,-3.0217,-3.0284,-3.0286,-3.0235,-3.0262,-3.0266,-3.0284,-3.0302,-3.0303,-3.0283,-3.028,-3.0317,-3.0321,-3.0325,-3.0388,-3.0334,-3.0337,-3.0339,-3.0471,-3.0473,-3.0475,0,0,0,0,0,0,-3.0209,-3.0217,-3.0282,-3.0251,-3.0259,-3.0266,-3.0285,-3.0285,-3.0296,-3.0305,-3.0306,-3.0293,-3.0315,-3.0321,-3.0362,-3.0388,-3.0338,-3.0341,-3.0468,-3.0471,-3.0474,-3.0511,0,0,0,0,0,0,-3.0206,-3.0216,-3.0235,-3.0252,-3.0261,-3.0318,-3.0287,-3.0287,-3.0302,-3.0299,-3.0315,-3.0317,-3.0315,-3.0357,-3.0365,-3.0392,-3.0343,-3.0466,-3.047,-3.0473,-3.0508,-3.0515,-3.0521,0,0,0,0,0,-3.0203,-3.0243,-3.0237,-3.0245,-3.0285,-3.032,-3.0325,-3.0323,-3.0304,-3.0324,-3.033,-3.0316,-3.0384,-3.0362,-3.037,-3.0398,-3.0464,-3.0469,-3.0473,-3.0505,-3.0513,-3.0521,0,0,0,0,0,0,-3.0228,-3.0245,-3.0238,-3.0285,-3.0301,-3.0316,-3.034,-3.0332,-3.0353,-3.0349,-3.0344,-3.0348,-3.0391,-3.0398,-3.0373,-3.0449,-3.0421,-3.0427,-3.0443,-3.0451,-3.0458,-3.0456,-3.0346,0,0,0,0,0,-3.024,-3.0267,-3.028,-3.032,-3.0329,-3.0334,-3.0348,-3.0346,-3.0362,-3.0368,-3.0377,-3.0393,-3.0418,-3.0435,-3.0458,-3.0508,-3.0512,-3.0531,-3.0538,-3.0544,-3.0549,-3.0578,-3.0588,-3.0488,-3.0488,-3.0488,0,0,-3.0263,-3.0276,-3.0293,-3.0326,-3.0338,-3.0367,-3.0339,-3.037,-3.0392,-3.0373,-3.0413,-3.0419,-3.0437,-3.0483,-3.0504,-3.049,-3.0578,-3.0549,-3.0553,-3.0556,-3.0584,-3.0593,-3.0601,-3.0491,-3.0491,-3.049,0,0,-3.0321,-3.0332,-3.0369,-3.0382,-3.0402,-3.0405,-3.0414,-3.043,-3.0435,-3.0474,-3.0462,-3.0487,-3.0529,-3.0543,-3.0556,-3.0621,-3.061,-3.0629,-3.0664,-3.0693,-3.0701,-3.0708,-3.0733,-3.0742,-3.0634,-3.0634,-3.0634,0,-3.0347,-3.039,-3.0388,-3.0421,-3.0436,-3.0422,-3.0459,-3.0472,-3.0498,-3.0509,-3.0493,-3.0549,-3.0559,-3.0609,-3.0626,-3.0636,-3.0646,-3.0627,-3.07,-3.0707,-3.0713,-3.0737,-3.0746,-3.0636,-3.0636,-3.0636,-3.0635,0,-3.0423,-3.0453,-3.048,-3.0508,-3.0526,-3.056,-3.0563,-3.0582,-3.0578,-3.0582,-3.0624,-3.0636,-3.0663,-3.0675,-3.067,-3.0725,-3.0716,-3.07,-3.0673,-3.0725,-3.0748,-3.0757,-3.0639,-3.0639,-3.0638,-3.0637,0,0,-3.0497,-3.0525,-3.0535,-3.0548,-3.057,-3.0593,-3.0627,-3.0655,-3.0672,-3.069,-3.072,-3.0757,-3.0744,-3.0758,-3.0755,-3.078,-3.0833,-3.0761,-3.0761,-3.0776,-3.0897,-3.091,-3.0921,-3.0826,-3.0827,-3.0829,-3.0896,0,-3.0558,-3.0619,-3.0619,-3.0676,-3.0705,-3.0692,-3.0723,-3.0739,-3.0745,-3.077,-3.0775,-3.0803,-3.0782,-3.0791,-3.0815,-3.0822,-3.0858,-3.0816,-3.0854,-3.0855,-3.0852,-3.0932,-3.0946,-3.1009,-3.0905,-3.0906,-3.0907,0,-3.0637,-3.066,-3.0721,-3.074,-3.0752,-3.078,-3.0806,-3.083,-3.0849,-3.0851,-3.0869,-3.0862,-3.0898,-3.0868,-3.0918,-3.089,-3.0905,-3.0911,-3.0913,-3.0918,-3.0886,-3.0941,-3.1029,-3.1039,-3.0921,-3.092,-3.0919,0,-3.0688,-3.0734,-3.0777,-3.0788,-3.0812,-3.0832,-3.0842,-3.086,-3.0877,-3.09,-3.0911,-3.0937,-3.0952,-3.0972,-3.0973,-3.0951,-3.1023,-3.0994,-3.1027,-3.1027,-3.1044,-3.1043,-3.1138,-3.1051,-3.1051,-3.105,-3.105,0,-3.0756,-3.0794,-3.0801,-3.0827,-3.087,-3.0869,-3.0911,-3.0919,-3.0935,-3.0963,-3.0953,-3.0979,-3.0978,-3.1005,-3.1005,-3.1048,-3.1053,-3.1057,-3.1057,-3.1059,-3.1059,-3.107,-3.1066,-3.1053,-3.1052,-3.1052,-3.1051,0,-3.0821,-3.0826,-3.0873,-3.0892,-3.0898,-3.0929,-3.0945,-3.097,-3.0975,-3.1011,-3.1019,-3.1027,-3.1059,-3.1062,-3.1097,-3.1097,-3.1149,-3.1143,-3.1143,-3.1143,-3.1177,-3.1175,-3.1283,-3.1299,-3.12,-3.1201,-3.1202,0,-3.0865,-3.0895,-3.0918,-3.0937,-3.0949,-3.0979,-3.0998,-3.0998,-3.1017,-3.1042,-3.1065,-3.1096,-3.1121,-3.1171,-3.118,-3.1208,-3.1204,-3.124,-3.1208,-3.121,-3.1207,-3.1206,-3.121,-3.1246,-3.1247,-3.1248,-3.1249,0,-3.0944,-3.0946,-3.0974,-3.1003,-3.1026,-3.1048,-3.107,-3.1085,-3.1088,-3.1111,-3.1144,-3.1163,-3.1201,-3.1232,-3.126,-3.127,-3.1261,-3.1259,-3.1269,-3.1272,-3.1272,-3.1275,-3.1163,-3.1257,-3.1256,-3.1255,-3.1255,-3.1255,-3.1001,-3.1028,-3.1049,-3.1081,-3.1097,-3.1118,-3.1144,-3.1153,-3.1181,-3.1213,-3.1211,-3.1248,-3.1267,-3.1304,-3.1316,-3.1345,-3.1333,-3.1346,-3.135,-3.1354,-3.1359,-3.1266,-3.135,-3.1349,-3.1349,-3.1349,-3.1349,0,-3.1082,-3.1095,-3.1124,-3.1156,-3.1181,-3.1171,-3.1194,-3.1216,-3.1249,-3.1269,-3.1294,-3.1333,-3.1363,-3.1375,-3.1405,-3.1426,-3.1423,-3.1434,-3.1433,-3.1436,-3.1366,-3.1356,-3.1436,-3.1436,-3.1436,-3.1436,-3.1436,-3.1436,-3.1126,-3.1172,-3.1177,-3.123,-3.1243,-3.1281,-3.1295,-3.1314,-3.1331,-3.1375,-3.1401,-3.1409,-3.1426,-3.1457,-3.1485,-3.1488,-3.15,-3.1514,-3.1515,-3.145,-3.1441,-3.1433,-3.1423,-3.1516,-3.1516,-3.1582,-3.1583,-3.1584]}]]